Regional Weather Roundup
Issued by NWS

Home | Current Version | Previous Version | Graphics & Text | Print | Product List | Glossary On
Versions: 1 2 3 4 5 6 7 8 9 10 11 12 13 14 15 16 17 18 19 20 21 22 23 24 25 26 27 28 29 30 31 32 33 34 35 36 37 38 39 40 41 42 43 44 45 46 47 48 49 50
000
ASUS43 KIND 231809
RWRIN

WEATHER ROUNDUP FOR INDIANA
NATIONAL WEATHER SERVICE INDIANAPOLIS IN
200 PM EDT TUE SEP 23 2014

NOTE: "FAIR" INDICATES FEW OR NO CLOUDS BELOW 12,000 FEET WITH NO
SIGNIFICANT WEATHER AND/OR OBSTRUCTIONS TO VISIBILITY.

* - STATION DOES NOT REPORT WEATHER SUCH AS PRECIPITATION OR FOG.

+ - STATION NOT QUALITY CONTROLLED BY THE NATIONAL WEATHER SERVICE.
    USE DATA WITH CAUTION...ESPECIALLY DEWPOINT AND RELATIVE
    HUMIDITY OBSERVATIONS.

INZ001>003-010>013-019-020-231900-
NORTHWEST INDIANA

CITY           SKY/WX    TMP DP  RH WIND       PRES   REMARKS
GARY /AIRPORT/ MOSUNNY   72  46  40 VRB5      30.35
KNOX *+        SUNNY     69  48  46 E3        30.34F
LA PORTE +     SUNNY     68  47  47 NE5       30.36S
6HR MIN TEMP:  41; 6HR MAX TEMP:  68;

MICHIGAN CITY+ SUNNY     68  48  49 NE5       30.35F
MONTICELLO +   SUNNY     69  49  48 CALM      30.35S
RENSSELAER +   SUNNY     70  46  43 CALM      30.35F
VALPARAISO     SUNNY     69  46  43 CALM      30.35F
6HR MIN TEMP:  43; 6HR MAX TEMP:  69;


$$

LMZ046-743>745-231900-
SOUTHERN LAKE MICHIGAN

STATION/POSITION TIME  TEMP WIND        PRES
                       AIR  DIR/SP/G
                 (UTC) (F)  (DEG/KT/KT) (MB)

$$

INZ004-005-014>016-021>024-231900-
NORTH CENTRAL INDIANA

CITY           SKY/WX    TMP DP  RH WIND       PRES   REMARKS
ELKHART        SUNNY     68  46  45 CALM      30.36F
GOSHEN         SUNNY     70  49  47 SE5       30.35F
LOGANSPORT +   SUNNY     68  46  45 N3        30.36S
PERU/GRISSOM   SUNNY     68  51  55 NE8       30.35S
6HR MIN TEMP:  44; 6HR MAX TEMP:  68;

ROCHESTER +    SUNNY     72  48  43 S3        30.35F
SOUTH BEND     SUNNY     70  48  45 VRB5      30.35F
6HR MIN TEMP:  45; 6HR MAX TEMP:  70;

WARSAW +       SUNNY     68  50  52 E3        30.35F

$$

INZ006>009-017-018-025>027-231900-
NORTHEAST INDIANA

CITY           SKY/WX    TMP DP  RH WIND       PRES   REMARKS
ANGOLA *+      SUNNY     72  50  46 W7        30.35S
AUBURN +       SUNNY     68  45  42 CALM      30.36F
FORT WAYNE     SUNNY     67  49  52 NE6       30.36F
6HR MIN TEMP:  43; 6HR MAX TEMP:  68;

HUNTINGTON +   SUNNY     67  51  55 E7        30.35F
6HR MIN TEMP:  41; 6HR MAX TEMP:  67;


$$

INZ028-029-035-036-043>045-051>053-231900-
WEST CENTRAL INDIANA

CITY           SKY/WX    TMP DP  RH WIND       PRES   REMARKS
GREENCASTLE +  SUNNY     68  46  45 SE5       30.35F
LAFAYETTE      SUNNY     68  49  50 NE5       30.35S
6HR MIN TEMP:  43; 6HR MAX TEMP:  69;

TERRE HAUTE    SUNNY     69  46  43 CALM      30.34F
6HR MIN TEMP:  40; 6HR MAX TEMP:  70;


$$

INZ030>032-037>040-046>048-054>057-064-065-231900-
CENTRAL INDIANA

CITY           SKY/WX    TMP DP  RH WIND       PRES   REMARKS
ANDERSON       SUNNY     68  46  45 CALM      30.36F
CP ATTERBURY + SUNNY     68  45  42 CALM      30.35F
COLUMBUS       SUNNY     68  43  40 N6        30.34F
FRANKFORT +    SUNNY     71  47  42 CALM      30.36S
GREENWOOD *+   SUNNY     68  48  49 CALM      30.35F
INDIANAPOLIS   SUNNY     67  46  47 E8        30.34F
6HR MIN TEMP:  48; 6HR MAX TEMP:  68;

-EAGLE CREEK   SUNNY     68  45  43 CALM      30.34F
6HR MIN TEMP:  47; 6HR MAX TEMP:  68;

KOKOMO *+      SUNNY     70  48  46 E9        30.35F
MARION +       SUNNY     67  46  46 E8        30.36S
MT COMFORT *+  SUNNY     68  32  26 CALM      30.35F
SHELBYVILLE    SUNNY     69  44  40 CALM      30.34F
6HR MIN TEMP:  43; 6HR MAX TEMP:  70;

ZIONSVILLE +   SUNNY     68  46  45 E3        30.36S
6HR MIN TEMP:  42; 6HR MAX TEMP:  69;


$$

INZ033-034-041-042-049-050-058-059-231900-
EAST CENTRAL INDIANA

CITY           SKY/WX    TMP DP  RH WIND       PRES   REMARKS
MUNCIE         SUNNY     69  45  41 NE8       30.35F
6HR MIN TEMP:  42; 6HR MAX TEMP:  69;


$$

INZ060-061-067>069-081>083-085>088-231900-
SOUTHWEST INDIANA

CITY           SKY/WX    TMP DP  RH WIND       PRES   REMARKS
EVANSVILLE     SUNNY     71  45  39 MISG      30.32F
6HR MIN TEMP:  46; 6HR MAX TEMP:  72;

WASHINGTON +   SUNNY     70  47  43 NE7       30.33F
6HR MIN TEMP:  40; 6HR MAX TEMP:  70;


$$

INZ062-063-066-070>080-084-089>092-231900-
SOUTH CENTRAL AND SOUTHEAST INDIANA

CITY           SKY/WX    TMP DP  RH WIND       PRES   REMARKS
BLOOMINGTON    SUNNY     67  44  43 VRB3      30.34F
6HR MIN TEMP:  41; 6HR MAX TEMP:  67;

SEYMOUR +      SUNNY     72  46  40 NE3       30.34

$$



USA.gov is the U.S. government's official web portal to all federal, state and local government web resources and services.